Regional Weather Roundup
Issued by NWS

Home | Current Version | Previous Version | Graphics & Text | Print | Product List | Glossary On
Versions: 1 2 3 4 5 6 7 8 9 10 11 12 13 14 15 16 17 18 19 20 21 22 23 24 25 26 27
751
ASUS45 KTFX 211810
RWRMT
MONTANA REGIONAL WEATHER ROUNDUP
NATIONAL WEATHER SERVICE GREAT FALLS MT
1200 PM MDT THU MAY 21 2015

NOTE: "FAIR" INDICATES FEW OR NO CLOUDS BELOW 12000 FEET WITH NO
SIGNIFICANT WEATHER AND/OR OBSTRUCTIONS TO VISIBILITY.

MTZ001>007-043-211900-
WEST OF THE DIVIDE

CITY           SKY/WX    TMP DP  RH WIND       PRES   REMARKS
KALISPELL      CLEAR     69  32  25 CALM      29.95F
MISSOULA       SUNNY     70  34  26 CALM      29.94F
BUTTE          PTSUNNY   57  37  47 SE12G18   30.03F
MULLAN PASS    SUNNY     60  34  37 CALM      30.02S
DEER LODGE       N/A     63  41  45 S3        30.03F
EUREKA           N/A     66  32  28 N3        29.96F
HAMILTON         N/A     64  41  42 N6        29.95F
LIBBY            N/A     70  36  28 SW5       29.93F
RONAN            N/A     67  37  33 NW3       30.00F
THOMPSON FALLS   N/A     74  38  27 NE10      29.95F
$$

MTZ008-052>055-211900-
SOUTHWEST MONTANA

CITY           SKY/WX    TMP DP  RH WIND       PRES   REMARKS
BOZEMAN        PTSUNNY   60  41  49 VRB3      30.03F
DILLON         PTSUNNY   55  43  63 VRB6      30.02F
W YELLOWSTONE  PTSUNNY   52  36  54 CALM      30.08F
THREE FORKS      N/A     57  57 100 NW1       30.03F
TWIN BRIDGES     N/A     61  38  42 W8        30.01F
$$

MTZ009-010-012-014-046-048-049-054-211900-
EAST SLOPES AND CENTRAL MONTANA

CITY           SKY/WX    TMP DP  RH WIND       PRES   REMARKS
CUT BANK       SUNNY     58  31  35 SE8       30.04F
GREAT FALLS    SUNNY     62  34  35 E9        30.03F
MALMSTROM AFB  SUNNY     61  35  36 NE7G14    30.04F
HELENA         MOSUNNY   64  37  36 N8        30.02S
CONRAD           N/A     60  37  42 NE8       30.06S
$$

MTZ011-013-016-021-045-047-050-051-211900-
NORTH CENTRAL MONTANA

CITY           SKY/WX    TMP DP  RH WIND       PRES   REMARKS
HAVRE          SUNNY     67  30  25 SE16G26   30.06F
LEWISTOWN      SUNNY     65  36  34 E17G25    30.06S
N BAR RANCH    FAIR      57  36  44 SE14G22   30.13S
CHINOOK          N/A     64  28  25 E20G26    30.09F
FORT BENTON      N/A     64  39  39 E8        30.04F
$$

MTZ017>020-022>027-061-062-211900-
NORTHEAST MONTANA

CITY           SKY/WX    TMP DP  RH WIND       PRES   REMARKS
GLASGOW        SUNNY     66  34  30 SE10G22   30.16F
JORDAN           N/A     65  27  23 SE22G30   30.15F
SIDNEY         SUNNY     66  30  26 CALM      30.21F
WOLF POINT     SUNNY     70  32  24 SE12G17   30.18F
MALTA            N/A     66  33  29 SE20      30.10F
PLENTYWOOD       N/A     70  28  21 E7G18     30.18F
POPLAR           N/A     68  30  24 E8        30.19F
$$

MTZ028>42-056>058-211900-
SOUTHCENTRAL AND SOUTHEAST MONTANA

CITY           SKY/WX    TMP DP  RH WIND       PRES   REMARKS
BAKER          SUNNY     65  31  28 SE18G24   30.22S
BILLINGS       MOSUNNY   60  40  47 NE9       30.10F
LIVINGSTON     MOSUNNY   58  41  53 E13       30.06F
MILES CITY     SUNNY     64  29  26 SE13G24   30.16F
BIG TIMBER       N/A     54  41  62 E7        30.09F
EKALAKA          N/A     60  29  31 E12       30.17F
FORSYTH          N/A     64  25  22 E17G24    30.13S
LAUREL           N/A     58  40  51 NE5       30.08F
ROUNDUP          N/A     61  33  34 E10       30.01F
$$

REGIONAL REPORTS...DAKOTAS

CITY           SKY/WX    TMP DP  RH WIND       PRES   REMARKS
WILLISTON      SUNNY     70  33  25 VRB3      30.19F
MINOT          SUNNY     68  36  30 CALM      30.16S
DICKINSON      SUNNY     67  29  24 VRB5      30.20S
BEACH          FAIR      64  30  27 SE8G17    30.22F
CROSBY         FAIR      72  28  20 NE7       30.18F
WATFORD CITY   FAIR      68  32  26 N3        30.17F
BISMARCK       MOSUNNY   73  34  23 NW8       30.17F
GRAND FORKS    MOSUNNY   64  34  32 N8        30.15S
FARGO          SUNNY     65  39  38 N7        30.14S
BUFFALO SD       N/A     64  30  27 SE15G24   30.16F
RAPID CITY     SUNNY     58  32  37 SE13      30.23F
$$

REGIONAL REPORTS...WYOMING/IDAHO/WASHINGTON

CITY           SKY/WX    TMP DP  RH WIND       PRES   REMARKS
GILLETTE       MOSUNNY   53  39  59 SE16      30.17F
SHERIDAN       MOSUNNY   58  40  51 E14       30.12S
BUFFALO WY     PTSUNNY   55  40  56 SE18G25   30.13S
CODY           MOSUNNY   55  41  58 CALM      30.09F
YELLOWSTONE LA   N/A     49  32  52 E5        30.14F
IDAHO FALLS    PTSUNNY   60  44  55 N6        30.01F
SALMON         PTSUNNY   61  43  51 S8        29.95F
BOISE          PTSUNNY   67  49  52 N3        29.90F
SPOKANE        MOSUNNY   73  41  31 SE9       29.89F
$$

REGIONAL REPORTS...ALBERTA

CITY           SKY/WX    TMP DP  RH WIND       PRES   REMARKS
EDMONTON       SUNNY     70  30  23 S16G23    30.02F
LETHBRIDGE     MOSUNNY   64  34  32 SE7       30.03
MEDICINE HAT   SUNNY     70  23  17 SE16G26   30.06F
$$

REGIONAL REPORTS...SASKATCHEWAN

CITY           SKY/WX    TMP DP  RH WIND       PRES   REMARKS
REGINA         MOSUNNY   72  28  20 VRB6      30.17F
SASKATOON      SUNNY     73  21  14 SW8       30.16F
$$



USA.gov is the U.S. government's official web portal to all federal, state and local government web resources and services.